FW4072 Weather Reports


time (UTC)temp
C
wind
direction
speed
KPH
gust
KPH
rain 1hr
cm
rain 24hr
cm
rain mn
cm
humidity
%
barometer
mb
20260904042529 15 0.0 0.0 0.00 0.00 0.00 89 1018.6
20260904041547 14 0.0 0.0 0.00 0.00 0.00 89 1018.6
20260904040647 14 0.0 0.0 0.00 0.00 0.00 88 1018.6
20260904035746 14 0.0 0.0 0.00 0.00 0.00 88 1018.6
20260904034845 14 0.0 0.0 0.00 0.00 0.00 88 1018.4
20260904033044 14 0.0 0.0 0.00 0.00 0.00 88 1018.4
20260904032146 15 0.0 0.0 0.00 0.00 0.00 88 1018.4
20260904031243 15 0.0 0.0 0.00 0.00 0.00 88 1018.3
20260904030344 15 0.0 1.6 0.00 0.03 0.00 88 1018.2
20260904025442 15 0.0 0.0 0.00 0.15 0.00 88 1018.2
20260904024541 15 0.0 0.0 0.00 0.20 0.00 88 1018.2
20260904023641 15 0.0 0.0 0.00 0.20 0.00 88 1018.2
20260904022740 15 0.0 0.0 0.00 0.20 0.00 87 1018.0
20260904021839 14 0.0 0.0 0.00 0.20 0.00 87 1018.1
20260904020038 14 0.0 0.0 0.00 0.20 0.00 87 1018.2
20260904015137 14 0.0 0.0 0.00 0.20 0.00 86 1018.3
20260904014257 14 0.0 0.0 0.00 0.20 0.00 86 1018.4
20260904013417 15 0.0 0.0 0.00 0.20 0.00 86 1018.4
20260904012435 15 0.0 0.0 0.00 0.20 0.00 86 1018.4
20260904011555 15 0.0 0.0 0.00 0.20 0.00 85 1018.5
20260904010634 15 0.0 0.0 0.00 0.20 0.00 85 1018.4
20260904005735 15 0.0 0.0 0.00 0.20 0.00 85 1018.4
20260904004832 15 0.0 0.0 0.00 0.20 0.00 85 1018.2
20260904003032 15 0.0 0.0 0.00 0.20 0.00 84 1018.2
20260904002131 15 0.0 0.0 0.00 0.20 0.00 84 1018.2
20260904001232 15 0.0 0.0 0.00 0.20 0.00 83 1018.3
20260904000330 15 0.0 0.0 0.00 0.20 0.00 83 1018.2
20260903235429 15 0.0 0.0 0.00 0.20 0.00 83 1018.3
20260903234515 16 0.0 0.0 0.00 0.20 0.00 82 1018.3
20260903233615 16 0.0 0.0 0.00 0.20 0.00 82 1018.5
20260903232714 16 0.0 0.0 0.00 0.20 0.00 81 1018.4
20260903231813 16 0.0 0.0 0.00 0.20 0.00 81 1018.5
20260903230913 16 0.0 0.0 0.00 0.20 0.00 80 1018.6
20260903225112 16 0.0 0.0 0.00 0.20 0.00 79 1018.6
20260903224211 17 0.0 0.0 0.00 0.20 0.00 79 1018.7
20260903223310 17 0.0 0.0 0.00 0.20 0.00 78 1018.5
20260903222429 17 0.0 0.0 0.00 0.20 0.00 78 1018.6
20260903221509 17 0.0 0.0 0.00 0.20 0.00 78 1018.7
20260903220744 17 0.0 0.0 0.00 0.20 0.00 77 1018.7
20260903215703 17 0.0 0.0 0.00 0.20 0.00 77 1018.7
20260903214802 17 0.0 0.0 0.00 0.20 0.00 77 1018.7
20260903213902 17 0.0 0.0 0.00 0.20 0.00 76 1018.8
20260903212100 17 0.0 0.0 0.00 0.20 0.00 77 1018.7
20260903211221 17 0.0 0.0 0.00 0.20 0.00 77 1018.8
20260903210320 17 0.0 0.0 0.00 0.20 0.00 77 1018.9
20260903205358 17 0.0 0.0 0.00 0.20 0.20 78 1019.0
20260903204457 17 0.0 1.6 0.00 0.20 0.20 78 1019.1
20260903203558 17 0.0 0.0 0.00 0.20 0.20 77 1019.1
20260903202711 17 0.0 0.0 0.00 0.20 0.20 76 1019.0
20260903201750 17 0.0 0.0 0.00 0.20 0.20 76 1019.1
20260903200849 17 0.0 0.0 0.00 0.20 0.20 74 1019.1
20260903195049 17 0.0 0.0 0.00 0.20 0.20 73 1019.1
20260903194149 18 0.0 0.0 0.00 0.20 0.20 73 1019.2
20260903193247 18 0.0 1.6 0.00 0.20 0.20 72 1019.1
20260903192407 18 0.0 0.0 0.00 0.20 0.20 71 1019.2
20260903191448 18 0.0 0.0 0.00 0.20 0.20 71 1019.1
20260903190545 18 0.0 0.0 0.00 0.20 0.20 70 1019.2
20260903185645 18 0.0 0.0 0.00 0.20 0.20 69 1019.2
20260903184739 18 0.0 0.0 0.00 0.20 0.20 68 1019.4
20260903183838 19 0.0 0.0 0.00 0.20 0.20 66 1019.3
20260903182038 20 0.0 0.0 0.00 0.20 0.20 65 1019.1
20260903181137 20 0.0 1.6 0.00 0.20 0.20 64 1019.0
20260903180236 20 0.0 0.0 0.00 0.20 0.20 63 1019.0
20260903175335 20 0.0 1.6 0.00 0.20 0.20 61 1018.9
20260903174436 20 0.0 0.0 0.00 0.20 0.20 60 1018.8
20260903173534 21 0.0 0.0 0.00 0.20 0.20 58 1018.8
20260903172653 21 0.0 3.2 0.00 0.20 0.20 57 1018.7
20260903171734 21 0.0 0.0 0.00 0.20 0.20 55 1018.6
20260903165929 21 0.0 1.6 0.00 0.20 0.20 53 1018.5
20260903165426 22 0.0 1.6 0.00 0.20 0.20 52 1018.6
20260903164525 22 0.0 1.6 0.00 0.20 0.20 50 1018.4
20260903163626 22 0.0 1.6 0.00 0.20 0.20 49 1018.4
20260903162726 22 0.0 0.0 0.00 0.20 0.20 48 1018.4
20260903161823 23 0.0 1.6 0.00 0.20 0.20 45 1018.4
20260903160024 24 0.0 1.6 0.00 0.20 0.20 41 1018.3
20260903155144 25 0.0 0.0 0.00 0.20 0.20 38 1018.4
20260903154221 25 0.0 1.6 0.00 0.20 0.20 37 1018.4
20260903153320 25 135 1.6 3.2 0.00 0.20 0.20 37 1018.3
20260903152419 25 0.0 1.6 0.00 0.20 0.20 37 1018.4
20260903151518 25 0.0 0.0 0.00 0.20 0.20 37 1018.3
20260903150617 25 0.0 3.2 0.00 0.20 0.20 36 1018.2
20260903145717 26 1.6 3.2 0.00 0.20 0.20 37 1018.2
20260903144836 26 113 1.6 8.0 0.00 0.20 0.20 35 1018.5
20260903143015 26 113 1.6 3.2 0.00 0.20 0.20 36 1018.6
20260903142114 26 0.0 1.6 0.00 0.20 0.20 36 1018.6
20260903141214 26 0.0 4.8 0.00 0.20 0.20 34 1018.6
20260903140335 27 0.0 1.6 0.00 0.20 0.20 32 1018.5
20260903135412 27 1.6 3.2 0.00 0.20 0.20 31 1018.7
20260903134511 27 0.0 3.2 0.00 0.20 0.20 28 1018.7
20260903133612 28 0.0 3.2 0.00 0.20 0.20 28 1018.8
20260903132710 28 0.0 3.2 0.00 0.20 0.20 30 1018.7
20260903131809 28 113 0.0 3.2 0.00 0.20 0.20 28 1018.9
20260903130908 29 0.0 3.2 0.00 0.20 0.20 24 1018.9
20260903125107 30 0.0 3.2 0.00 0.20 0.20 24 1018.9
20260903124208 30 0.0 3.2 0.00 0.20 0.20 23 1018.8
20260903123328 30 0.0 3.2 0.00 0.20 0.20 23 1018.9
20260903122405 29 158 1.6 3.2 0.00 0.20 0.20 24 1019.1
20260903121505 30 0.0 3.2 0.00 0.20 0.20 25 1019.1
20260903120604 30 135 1.6 3.2 0.00 0.20 0.20 27 1019.2
20260903115703 28 0.0 1.6 0.00 0.20 0.20 28 1019.3
20260903114802 30 135 0.0 3.2 0.00 0.20 0.20 25 1019.4
20260903113902 30 135 3.2 6.4 0.00 0.20 0.20 24 1019.5
20260903112101 30 135 1.6 3.2 0.00 0.20 0.20 24 1019.5
20260903111200 30 135 1.6 4.8 0.00 0.20 0.20 26 1019.6
20260903110320 29 0.0 1.6 0.00 0.20 0.20 28 1019.8
20260903105359 30 0.0 3.2 0.00 0.20 0.20 26 1019.9
20260903104500 30 0.0 1.6 0.00 0.20 0.20 29 1020.1
20260903103557 29 135 1.6 3.2 0.00 0.20 0.20 29 1020.0
20260903102658 28 0.0 3.2 0.00 0.20 0.20 31 1020.1
20260903101756 29 4.8 9.7 0.00 0.20 0.20 29 1020.0
20260903100915 28 128 1.6 6.4 0.00 0.20 0.20 33 1020.0
20260903095054 28 135 1.6 6.4 0.00 0.20 0.20 34 1020.2
20260903094153 28 135 1.6 4.8 0.00 0.20 0.20 35 1020.3
20260903093254 28 113 1.6 6.4 0.00 0.20 0.20 38 1020.5
20260903092352 28 0.0 3.2 0.00 0.20 0.20 41 1020.3
20260903091451 28 113 1.6 3.2 0.00 0.20 0.20 37 1020.6
20260903090550 27 0.0 1.6 0.00 0.20 0.20 43 1020.6
20260903085650 27 135 1.6 4.8 0.00 0.20 0.20 43 1020.7
20260903084751 26 0.0 3.2 0.00 0.20 0.20 47 1020.8
20260903083849 26 0.0 3.2 0.00 0.20 0.20 53 1020.8
20260903082048 25 135 1.6 3.2 0.00 0.20 0.20 55 1020.9
20260903081147 25 3.2 4.8 0.00 0.20 0.20 56 1021.0
20260903080246 24 135 1.6 6.4 0.00 0.20 0.20 60 1021.2
20260903075407 23 0.0 3.2 0.00 0.20 0.20 65 1021.1
20260903074446 22 0.0 1.6 0.00 0.20 0.20 65 1021.1
20260903073544 22 0.0 3.2 0.00 0.20 0.20 64 1021.1
20260903072643 22 1.6 3.2 0.00 0.20 0.20 66 1021.0
20260903071744 22 0.0 1.6 0.00 0.20 0.20 66 1021.1
20260903070842 22 135 0.0 4.8 0.00 0.20 0.20 68 1021.1
20260903065040 21 158 1.6 3.2 0.00 0.20 0.20 70 1020.8
20260903064140 21 0.0 1.6 0.00 0.20 0.20 71 1020.7
20260903063302 21 0.0 3.2 0.00 0.20 0.20 73 1020.9
20260903062338 20 0.0 3.2 0.00 0.20 0.20 74 1020.9
20260903061439 20 0.0 0.0 0.00 0.20 0.20 75 1021.0
20260903060538 20 0.0 1.6 0.00 0.20 0.20 75 1021.0
20260903055637 20 0.0 0.0 0.00 0.20 0.20 75 1020.9
20260903054756 20 0.0 0.0 0.00 0.20 0.20 75 1021.0
20260903053918 20 0.0 3.2 0.00 0.20 0.20 81 1021.0
20260903052035 18 0.0 1.6 0.00 0.20 0.20 85 1021.0
20260903051134 18 0.0 0.0 0.00 0.20 0.20 87 1020.8
20260903050233 17 0.0 0.0 0.00 0.20 0.20 87 1021.0
20260903045413 17 0.0 0.0 0.00 0.20 0.20 87 1021.1
20260903044432 17 0.0 0.0 0.00 0.20 0.20 87 1021.0
20260903043532 16 0.0 0.0 0.00 0.20 0.20 87 1020.8
20260903042631 16 0.0 0.0 0.00 0.20 0.20 86 1020.8